Waarnemingen

Advertentie
Mijn weer
Cuxhaven, Duitsland (10131): temperatuur & dauwpunt: 16.06.2018 09:00:00 - 22.06.2018 09:00:00 (CEST)Cuxhaven, Duitsland (10131): temperatuur 5cm: 16.06.2018 09:00:00 - 22.06.2018 09:00:00 (CEST)Cuxhaven, Duitsland (10131): windsnelheid & windstoten: 16.06.2018 09:00:00 - 22.06.2018 09:00:00 (CEST)Cuxhaven, Duitsland (10131): windrichting: 16.06.2018 09:00:00 - 22.06.2018 09:00:00 (CEST)Cuxhaven, Duitsland (10131): luchtdruk: 16.06.2018 09:00:00 - 22.06.2018 09:00:00 (CEST)Cuxhaven, Duitsland (10131): zicht: 16.06.2018 09:00:00 - 22.06.2018 09:00:00 (CEST)Cuxhaven, Duitsland (10131): Zonneschijnduur: 16.06.2018 09:00:00 - 22.06.2018 09:00:00 (CEST)Cuxhaven, Duitsland (10131): neerslag: 16.06.2018 09:00:00 - 22.06.2018 09:00:00 (CEST)
Datum & Tijd tt [°C] td [°C] tt 5cm [°C] ff [km/u] ff [kn] fx [km/u] fx [kn] dd ppp [hPa] vv [km] sd [min] rr [mm]
22.06.2018 09:00:00 13,9 8,4 14,4 39 21 59 32 NW 1016,6 24 24 0,0
22.06.2018 08:00:00 13,2 8,6 12,9 41 22 56 30 NW 1015,8 35 0 0,0
22.06.2018 07:00:00 12,4 8,2 10,7 34 18 54 29 NW 1015,2 59 0 0,3
22.06.2018 06:00:00 11,4 8,3 10,0 37 20 57 31 WNW 1014,9 9 0 0,1
22.06.2018 05:00:00 12,2 8,0 11,0 39 21 56 30 WNW 1014,7 44 0 0,1
22.06.2018 04:00:00 12,3 8,1 10,8 24 13 44 24 WNW 1014,7 31 0 0,0
22.06.2018 03:00:00 11,9 8,2 9,7 30 16 74 40 WNW 1015,0 37 0 0,2
22.06.2018 02:00:00 11,9 7,9 9,8 33 18 52 28 WNW 1015,3 35 0 0,1
22.06.2018 01:00:00 11,6 8,2 10,0 30 16 52 28 W 1015,8 37 0 0,0
22.06.2018 00:00:00 11,3 8,3 9,8 34 18 59 32 W 1016,1 6 0 0,5
21.06.2018 23:00:00 12,1 8,5 10,6 32 18 62 33 W 1016,3 15 0 0,1
21.06.2018 22:00:00 12,5 7,1 10,5 34 18 58 31 W 1016,5 22 2 0,5
21.06.2018 21:00:00 11,0 7,6 10,1 41 22 62 33 WNW 1017,1 4,5 26 0,0
21.06.2018 20:00:00 13,8 6,9 14,8 40 22 63 34 WNW 1016,9 31 42 0,0
21.06.2018 19:00:00 13,9 7,3 14,6 40 22 71 39 WNW 1016,7 36 36 0,0
21.06.2018 18:00:00 14,0 7,0 15,0 47 26 63 34 WNW 1016,1 29 27 0,0
21.06.2018 17:00:00 13,6 7,7 14,4 41 22 65 35 WNW 1015,6 45 30 0,1
21.06.2018 16:00:00 14,2 8,5 16,8 37 20 66 35 WNW 1014,9 16 24 0,3
21.06.2018 15:00:00 14,3 6,9 16,8 31 17 62 33 WNW 1014,2 19 34 0,0
21.06.2018 14:00:00 13,4 8,4 15,8 48 26 78 42 WNW 1013,0 13 27 0,1
21.06.2018 13:00:00 12,4 8,2 11,9 46 25 69 37 W 1012,4 19 6 0,1
21.06.2018 12:00:00 12,9 9,5 13,2 28 15 72 39 W 1011,7 28 0 0,7
21.06.2018 11:00:00 14,5 9,9 15,3 24 13 40 21 WNW 1011,0 37 0 0,0
21.06.2018 10:00:00 14,2 9,7 13,3 26 14 40 21 W 1011,3 45 0 0,0
21.06.2018 09:00:00 14,1 9,2 12,8 26 14 43 23 WNW 1011,4 59 0 0,0
21.06.2018 08:00:00 14,3 9,6 12,7 26 14 41 22 WNW 1011,7 56 0 0,0
21.06.2018 07:00:00 14,2 10,2 12,5 27 14 41 22 WNW 1011,7 55 0 0,0
21.06.2018 06:00:00 13,9 12,5 13,2 23 12 37 20 WNW 1011,8 33 0 0,1
21.06.2018 05:00:00 14,3 13,5 13,8 26 14 35 19 WNW 1012,5 8 0 0,0
21.06.2018 04:00:00 15,4 14,7 15,0 18 10 27 15 WNW 1012,6 4,9 0 1,3
21.06.2018 03:00:00 15,7 15,4 15,4 17 9 32 17 WNW 1013,1 2,4 0 0,7
21.06.2018 02:00:00 16,6 16,2 16,2 18 10 33 18 W 1013,8 10 0 0,1
21.06.2018 01:00:00 17,3 16,7 16,8 22 12 35 19 W 1014,3 5 0 0,3
21.06.2018 00:00:00 18,1 16,3 17,9 19 11 30 16 W 1014,9 13 0 0,0
20.06.2018 23:00:00 18,9 16,6 17,2 10 5 33 18 WZW 1015,1 11 0 0,0
20.06.2018 22:00:00 18,6 16,3 17,5 19 10 41 22 W 1015,4 13 24 0,0
20.06.2018 21:00:00 19,0 16,1 20,0 24 13 45 24 W 1015,4 17 34 0,0
20.06.2018 20:00:00 18,3 16,1 20,0 23 12 39 21 W 1016,2 12 23 0,0
20.06.2018 19:00:00 19,6 16,1 22,6 26 14 41 22 W 1016,5 10 57 0,0
20.06.2018 18:00:00 20,7 16,4 24,7 25 13 42 23 W 1016,8 6 41 0,0
20.06.2018 17:00:00 21,7 17,1 27,0 27 15 48 26 W 1017,2 8 55 0,0
20.06.2018 16:00:00 25,0 15,1 29,7 28 15 50 27 WZW 1017,2 10 49 0,0
20.06.2018 15:00:00 25,1 15,6 30,9 25 14 46 25 ZW 1017,5 15 40 0,0
20.06.2018 14:00:00 24,7 15,5 29,7 23 12 46 25 ZW 1018,0 70 52 0,0
20.06.2018 13:00:00 23,5 14,9 28,6 23 13 46 25 ZW 1018,8 29 48 0,0
20.06.2018 12:00:00 23,0 15,4 27,3 24 13 45 24 ZW 1019,3 8 60 0,0
20.06.2018 11:00:00 21,8 15,1 25,5 24 13 44 24 ZW 1019,6 9 60 0,0
20.06.2018 10:00:00 20,1 15,3 22,1 23 12 44 24 ZZW 1019,8 9 60 0,0
20.06.2018 09:00:00 18,7 15,1 20,7 18 10 37 20 ZZW 1020,2 10 31 0,0
20.06.2018 08:00:00 17,6 15,0 17,7 17 9 31 17 ZZW 1020,4 10 2 0,0
20.06.2018 07:00:00 14,8 13,1 14,8 9 5 23 12 ZZW 1020,7 10 0 0,0
20.06.2018 06:00:00 13,3 11,5 12,3 9 5 21 12 Z 1021,1 14 0 0,0
20.06.2018 05:00:00 13,2 11,1 11,9 9 5 17 9 Z 1021,3 17 0 0,0
20.06.2018 04:00:00 13,3 11,1 12,4 8 4 15 8 Z 1021,5 19 0 0,0
20.06.2018 03:00:00 13,5 10,8 11,9 6 3 14 7 Z 1022,0 23 0 0,0
20.06.2018 02:00:00 13,7 10,8 12,6 6 3 11 6 Z 1022,5 26 0 0,0
20.06.2018 01:00:00 14,4 10,7 11,7 6 3 9 5 ZZW 1022,8 32 0 0,0
20.06.2018 00:00:00 14,9 10,6 12,0 6 4 16 9 WZW 1023,1 37 0 0,0
19.06.2018 23:00:00 15,2 10,4 13,5 10 6 21 12 W 1023,2 43 0 0,0
19.06.2018 22:00:00 15,5 10,0 13,9 14 8 29 16 W 1022,9 48 29 0,0
19.06.2018 21:00:00 16,3 10,9 16,5 19 11 32 18 WNW 1022,8 30 52 0,0
19.06.2018 20:00:00 17,0 11,0 18,8 19 10 29 16 W 1022,8 24 60 0,0
19.06.2018 19:00:00 17,3 11,6 20,9 19 11 32 17 W 1022,8 13 60 0,0
19.06.2018 18:00:00 18,0 11,4 22,8 17 9 31 17 W 1022,7 20 60 0,0
19.06.2018 17:00:00 17,8 11,3 23,9 22 12 33 18 WNW 1022,6 8 60 0,0
19.06.2018 16:00:00 18,3 12,3 24,5 23 12 37 20 WNW 1022,2 6 56 0,0
19.06.2018 15:00:00 18,3 13,4 23,0 27 15 41 22 W 1021,9 13 21 0,0
19.06.2018 14:00:00 18,8 14,2 22,6 26 14 37 20 WNW 1021,2 20 35 0,0
19.06.2018 13:00:00 19,0 14,7 23,5 24 13 37 20 W 1021,0 16 9 0,0
19.06.2018 12:00:00 18,3 14,7 22,9 22 12 34 19 W 1020,4 20 4 0,0
19.06.2018 11:00:00 17,7 15,5 18,8 18 10 36 19 W 1020,0 10 0 0,0
19.06.2018 10:00:00 16,8 15,5 17,6 17 9 38 20 WZW 1019,5 11 0 0,0
19.06.2018 09:00:00 16,4 15,0 16,5 16 9 37 20 WZW 1018,7 11 0 0,0
19.06.2018 08:00:00 16,9 14,3 17,1 19 10 39 21 WZW 1018,1 12 0 0,0
19.06.2018 07:00:00 16,5 14,1 16,3 18 10 34 19 ZW 1017,5 12 0 0,0
19.06.2018 06:00:00 16,3 14,1 15,7 13 7 31 17 ZW 1017,6 12 0 0,0
19.06.2018 05:00:00 16,2 13,9 15,1 14 8 30 16 ZW 1017,3 13 0 0,0
19.06.2018 04:00:00 15,6 13,9 14,7 14 7 26 14 ZZW 1017,3 12 0 0,0
19.06.2018 03:00:00 15,4 13,9 14,5 10 6 20 11 ZZW 1017,7 11 0 0,0
19.06.2018 02:00:00 15,3 13,9 14,2 11 6 27 14 WZW 1017,9 13 0 0,0
19.06.2018 01:00:00 15,5 13,9 13,8 13 7 31 17 WZW 1018,0 13 0 0,0
19.06.2018 00:00:00 16,1 14,2 14,7 18 10 29 16 WZW 1018,2 17 0 0,0
18.06.2018 23:00:00 16,5 15,2 15,7 13 7 22 12 W 1018,0 17 0 0,0
18.06.2018 22:00:00 16,5 15,4 15,7 15 8 27 15 W 1017,6 16 0 0,0
18.06.2018 21:00:00 16,7 15,4 16,2 11 6 20 11 W 1017,6 15 0 0,0
18.06.2018 20:00:00 16,6 15,7 16,3 10 5 19 10 WZW 1017,5 9 0 0,2
18.06.2018 19:00:00 16,9 15,3 16,8 13 7 25 13 W 1017,4 11 0 0,1
18.06.2018 18:00:00 18,2 16,3 18,3 13 7 27 14 WZW 1017,5 15 6 0,0
18.06.2018 17:00:00 17,3 16,7 20,0 14 7 31 17 WZW 1017,8 13 2 2,5
18.06.2018 16:00:00 17,5 15,9 17,3 10 5 34 19 ZW 1017,8 6 0 0,3
18.06.2018 15:00:00 18,6 14,2 20,2 16 9 39 21 ZZW 1017,6 14 1 0,0
18.06.2018 14:00:00 17,3 14,2 17,7 19 10 35 19 ZW 1017,8 10 0 0,0
18.06.2018 13:00:00 17,5 13,9 20,2 17 9 40 21 ZZW 1018,0 18 0 0,0
18.06.2018 12:00:00 16,0 13,8 16,8 17 9 39 21 ZZW 1017,9 9 0 0,0
18.06.2018 11:00:00 17,0 12,2 18,9 22 12 42 23 ZZW 1017,5 19 8 0,0
18.06.2018 10:00:00 16,9 11,6 19,3 24 13 41 22 ZZW 1017,6 19 6 0,0
18.06.2018 09:00:00 16,5 11,6 18,7 18 10 33 18 ZZW 1017,7 22 24 0,0
18.06.2018 08:00:00 15,1 12,0 15,9 13 7 26 14 ZZW 1017,7 22 0 0,0
18.06.2018 07:00:00 14,8 12,0 15,0 12 7 24 13 ZZW 1017,6 15 49 0,0
18.06.2018 06:00:00 13,6 12,2 12,6 9 5 19 10 ZZW 1017,8 14 18 0,0
18.06.2018 05:00:00 14,0 12,1 12,0 7 4 18 10 Z 1017,6 16 0 0,0
18.06.2018 04:00:00 14,5 12,4 13,7 9 5 16 8 Z 1017,7 17 0 0,0
18.06.2018 03:00:00 14,3 12,8 13,6 8 5 18 10 Z 1018,0 13 0 0,0
18.06.2018 02:00:00 14,3 12,6 13,9 9 5 16 9 Z 1018,0 17 0 0,0
18.06.2018 01:00:00 14,7 12,2 14,0 6 3 15 8 Z 1017,7 24 0 0,0
18.06.2018 00:00:00 15,0 12,3 13,9 10 5 23 12 WZW 1017,7 25 0 0,0
17.06.2018 23:00:00 15,8 10,9 15,1 14 7 22 12 W 1017,7 35 0 0,0
17.06.2018 22:00:00 16,0 10,7 15,5 14 7 23 13 W 1017,4 39 0 0,0
17.06.2018 21:00:00 16,7 10,3 16,8 18 10 25 14 W 1017,2 48 4 0,0
17.06.2018 20:00:00 16,6 11,0 17,2 17 9 31 17 W 1017,1 36 0 0,0
17.06.2018 19:00:00 16,7 11,9 17,6 22 12 31 17 W 1016,8 38 0 0,0
17.06.2018 18:00:00 16,7 10,1 17,2 20 11 37 20 W 1016,6 59 13 0,0
17.06.2018 17:00:00 17,5 10,3 20,2 21 12 37 20 W 1016,3 34 16 0,0
17.06.2018 16:00:00 17,5 11,3 20,7 20 11 35 19 W 1016,0 36 20 0,0
17.06.2018 15:00:00 17,3 11,0 21,4 22 12 36 20 WNW 1015,5 16 9 0,0
17.06.2018 14:00:00 15,9 12,5 16,8 16 8 41 22 WNW 1015,1 35 2 0,3
17.06.2018 13:00:00 19,0 11,9 20,3 19 10 39 21 ZW 1014,1 32 15 0,0
17.06.2018 12:00:00 18,1 12,0 21,0 24 13 41 22 WZW 1014,0 19 21 0,0
17.06.2018 11:00:00 17,8 11,7 22,1 21 11 45 24 ZW 1013,8 19 30 0,0
17.06.2018 10:00:00 17,4 11,9 19,6 21 11 36 19 ZW 1013,5 19 33 0,0
17.06.2018 09:00:00 17,0 12,1 20,0 17 9 36 19 ZW 1013,3 11 57 0,0
17.06.2018 08:00:00 16,0 11,7 16,1 16 9 31 17 ZW 1013,2 14 53 0,0
17.06.2018 07:00:00 15,0 11,6 13,5 14 7 26 14 ZW 1013,2 34 43 0,0
17.06.2018 06:00:00 14,6 11,4 12,6 9 5 16 9 ZW 1013,2 28 3 0,0
17.06.2018 05:00:00 15,0 12,2 13,0 10 5 20 11 ZW 1013,2 11 0 0,0
17.06.2018 04:00:00 15,5 13,8 14,0 8 4 16 9 Z 1013,2 4,7 0 0,0
17.06.2018 03:00:00 15,6 13,5 14,5 6 4 14 7 ZZW 1013,5 6 0 0,0
17.06.2018 02:00:00 15,5 13,3 14,4 6 3 9 5 ZW 1013,6 8 0 0,1
17.06.2018 01:00:00 15,3 13,6 14,4 6 4 19 10 W 1013,9 6 0 1,5
17.06.2018 00:00:00 17,1 14,0 15,5 6 3 16 8 W 1013,6 8 0 0,0
16.06.2018 23:00:00 17,3 13,6 16,2 3 2 15 8 N 1013,4 10 0 0,0
16.06.2018 22:00:00 17,3 13,5 16,5 13 7 27 15 NW 1013,3 11 0 0,0
16.06.2018 21:00:00 19,0 12,9 18,3 8 4 10 5 WNW 1013,4 21 0 0,0
16.06.2018 20:00:00 19,1 13,0 20,3 3 1 7 4 NO 1013,1 18 0 0,0
16.06.2018 19:00:00 18,8 13,6 19,7 3 2 19 10 N 1012,9 12 6 0,0
16.06.2018 18:00:00 20,0 14,4 23,6 12 7 29 16 NNW 1013,2 12 26 0,0
16.06.2018 17:00:00 19,4 13,0 21,4 21 11 34 19 WNW 1013,4 16 0 0,0
16.06.2018 16:00:00 20,3 14,6 24,1 23 13 33 18 WNW 1013,0 7 9 0,0
16.06.2018 15:00:00 23,8 11,5 27,3 21 11 35 19 ZW 1012,9 19 9 0,0
16.06.2018 14:00:00 24,3 11,0 29,7 11 6 32 18 Z 1013,3 17 46 0,0
16.06.2018 13:00:00 23,9 11,7 29,9 13 7 30 16 ZW 1013,9 12 52 0,0
16.06.2018 12:00:00 22,2 14,0 27,4 11 6 24 13 ZZW 1014,1 10 59 0,0
16.06.2018 11:00:00 21,1 13,8 24,5 11 6 19 11 ZZO 1014,1 15 28 0,0
16.06.2018 10:00:00 18,7 13,0 21,2 6 4 19 10 Z 1014,4 19 0 0,0
16.06.2018 09:00:00 17,5 11,7 18,8 10 6 20 11 ZO 1014,5 21 0 0,0

tt = temperatuur
td = dauwpunt
tt 5cm = temperatuur 5cm
ff = windsnelheid
fx = windstoten
dd = windrichting
ppp = luchtdruk
vv = zicht
sd = Zonneschijnduur
rr = neerslag

Weerstations in de omgeving